• Join FlightAware (Why Join?)
  • Login
  • US Flag 
09:00PM EST


 

Airport Tracker/Info


-or-


 

Live Flight TrackerFlight Track Log ✈ KAL1333 ✈ 24-Aug-2013 ✈ RKSS / GMP - RKJY / RSU

Flight Track Log - Related Links

Times and Time Zones

All times are in EDT time to prevent confusion due to time zone crossing. See the KAL1333 flight status page for this flight to view local times or setup timezone preferences in your user account.

Time Position Orientation Groundspeed Altitude Reporting Facility
EDT Latitude Longitude Course Direction KTS MPH feet Rate Location/Type
09:31PM 37.3706 126.8495 166° South  Level Estimated
09:32PM 37.2767 126.8788 166° South  Level Estimated
09:33PM 37.1829 126.9081 166° South  Level Estimated
09:34PM 37.0890 126.9373 166° South  Level Estimated
09:35PM 36.9951 126.9664 166° South  Level Estimated
09:36PM 36.9012 126.9954 166° South  Level Estimated
09:37PM 36.8073 127.0244 166° South  Level Estimated
09:38PM 36.7134 127.0533 166° South  Level Estimated
09:39PM 36.6195 127.0821 166° South  Level Estimated
09:40PM 36.5256 127.1109 166° South  Level Estimated
09:41PM 36.4317 127.1396 166° South  Level Estimated
09:42PM 36.3377 127.1682 166° South  Level Estimated
09:43PM 36.2438 127.1967 166° South  Level Estimated
09:44PM 36.1499 127.2252 166° South  Level Estimated
09:45PM 36.0559 127.2536 166° South  Level Estimated
09:46PM 35.9619 127.2820 166° South  Level Estimated
09:47PM 35.8680 127.3103 166° South  Level Estimated
09:48PM 35.7740 127.3385 166° South  Level Estimated
09:49PM 35.6800 127.3667 166° South  Level Estimated
09:50PM 35.5860 127.3947 166° South  Level Estimated
09:51PM 35.4921 127.4228 166° South  Level Estimated
09:52PM 35.3980 127.4507 166° South  Level Estimated
09:53PM 35.3041 127.4786 166° South  Level Estimated
09:54PM 35.2100 127.5064 166° South  Level Estimated
09:55PM 35.1160 127.5342 166° South  Level Estimated
09:56PM 35.0220 127.5619 166° South  Level Estimated
09:57PM 34.9280 127.5895 166° South  Level Estimated
09:58PM 34.8398 127.6153 166° South  Level Estimated
09:59PM 34.8398 127.6153 180° South  Level Estimated
10:00PM 34.8398 127.6153 180° South  Level Estimated
10:01PM 34.8398 127.6153 180° South  Level Estimated
10:02PM 34.8398 127.6153 180° South  Level Estimated
10:03PM 34.8398 127.6153 180° South  Level Estimated
10:04PM 34.8398 127.6153 180° South  Level Estimated
10:05PM 34.8398 127.6153 180° South  Level Estimated
10:06PM 34.8398 127.6153 180° South  Level Estimated
10:07PM 34.8398 127.6153 180° South  Level Estimated
10:08PM 34.8398 127.6153 180° South  Level Estimated
10:09PM 34.8398 127.6153 180° South  Level Estimated
10:10PM 34.8398 127.6153 180° South  Level Estimated
10:11PM 34.8398 127.6153 180° South  Level Estimated
10:12PM 34.8398 127.6153 180° South  Level Estimated
10:13PM 34.8398 127.6153 180° South  Level Estimated